User: anonymous   Login
Location: *
(45.0500°N, 12.0500°E)
Time: 16:34:34
(UTC+00:00)
Language:

CARTOSAT-1 - Orbit

View from above orbital plane
View from above orbital plane
View from above satellite
View from above satellite

Ground track
Ground track

The orbit data is extracted from the following two-line orbital elements,

1 28649U 05017A   20196.14486978 -.00000043  00000-0  11231-5 0  9998
2 28649  97.8113 264.4674 0001940  47.8354 312.3025 14.83702704822473
Epoch (UTC): 14 July 2020 03:28:36
Eccentricity: 0.0001940
inclination: 97.8113°
perigee height: 616 km
apogee height: 619 km
right ascension of ascending node: 264.4674°
argument of perigee: 47.8354°
revolutions per day: 14.83702704
mean anomaly at epoch: 312.3025°
orbit number at epoch: 82247

The dashed part of the orbit path shows where the satellite is in the earth's shadow,  

DLR